Hot Springs, VA

7:03 PM EDT on August 27, 2016 (GMT -0400)
Ingalls

Weather History for KHSP - September, 2012

Change the Weather History Date:

Thursday, September 13, 2012

  Actual Average Record
Temperature  
Mean Temperature 60 °F -  
Max Temperature 69 °F 67 °F 86 °F (1998)
Min Temperature 51 °F 53 °F 46 °F (2014)
Degree Days  
Heating Degree Days 5    
Growing Degree Days 10 (Base 50)    
Moisture  
Dew Point 51 °F    
Average Humidity 66    
Maximum Humidity 88    
Minimum Humidity 43    
Precipitation  
Precipitation 0.00 in - - ()
Sea Level Pressure  
Sea Level Pressure 30.45 in    
Wind  
Wind Speed 5 mph (SSE)    
Max Wind Speed 8 mph    
Max Gust Speed -    
Visibility 8 miles    
Events      
Averages and records for this station are not official NWS values.
T = Trace of Precipitation, MM = Missing Value Source: NWS Daily Summary

Daily Weather History Graph

Daily Weather History Graph

Search for Another Location

Airport or City:

Trip Planner

Search our weather history database for the weather conditions in past years. The results will help you decide how hot, cold, wet, or windy it might be!

Date:

Astronomy

Sep. 13, 2012 Rise Set
Actual Time 6:59 AM EDT 7:29 PM EDT
Civil Twilight 6:33 AM EDT 7:56 PM EDT
Nautical Twilight 6:02 AM EDT 8:27 PM EDT
Astronomical Twilight 5:30 AM EDT 8:58 PM EDT
Moon 4:19 AM EDT (9/13) 5:50 PM EDT (9/13)
Length of Visible Light 13h 22m
Length of Day
12h 29m
Waning Crescent, 7% of the Moon is Illuminated
Sep 13
Waning Crescent
Sep 15
New
Sep 22
First Quarter
Sep 29
Full
Oct 8
Last Quarter

Hourly Weather History & Observations

Time (EDT) Temp. Dew Point Humidity Pressure Visibility Wind Dir Wind Speed Gust Speed Precip Events Conditions
12:37 AM 55.4 °F 50.0 °F 82% 30.46 in 10.0 mi South 5.8 mph - N/A   Clear
1:45 AM 55.4 °F 50.0 °F 82% 30.46 in 10.0 mi South 6.9 mph - N/A   Clear
6:38 AM 51.8 °F 48.2 °F 88% 30.46 in 10.0 mi West 3.5 mph - N/A   Clear
8:40 AM 57.2 °F 51.8 °F 82% 30.48 in 10.0 mi West 4.6 mph - N/A   Clear
9:41 AM 59.0 °F 51.8 °F 77% 30.49 in 10.0 mi West 4.6 mph - N/A   Clear
9:58 AM 59.0 °F 51.8 °F 77% 30.50 in 10.0 mi West 4.6 mph - N/A   Clear
10:18 AM 59.0 °F 51.8 °F 77% 30.50 in 10.0 mi NW 3.5 mph - N/A   Clear
10:39 AM 60.8 °F 51.8 °F 72% 30.50 in 10.0 mi Calm Calm - N/A   Clear
10:58 AM 62.6 °F 53.6 °F 72% 30.50 in 10.0 mi NE 4.6 mph - N/A   Clear
11:23 AM 62.6 °F 53.6 °F 72% 30.50 in 10.0 mi ENE 3.5 mph - N/A   Clear
11:37 AM 64.4 °F 55.4 °F 73% 30.50 in 10.0 mi ESE 4.6 mph - N/A   Clear
12:23 PM 64.4 °F 55.4 °F 73% 30.49 in 10.0 mi Calm Calm - N/A   Scattered Clouds
12:42 PM 64.4 °F 53.6 °F 68% 30.49 in 10.0 mi Calm Calm - N/A   Scattered Clouds
12:57 PM 64.4 °F 53.6 °F 68% 30.48 in 10.0 mi Calm Calm - N/A   Clear
1:21 PM 66.2 °F 53.6 °F 64% 30.48 in 10.0 mi Calm Calm - N/A   Clear
1:39 PM 66.2 °F 53.6 °F 64% 30.47 in 10.0 mi ESE 5.8 mph - N/A   Clear
1:59 PM 68.0 °F 55.4 °F 64% 30.46 in 10.0 mi ENE 4.6 mph - N/A   Clear
2:18 PM 68.0 °F 55.4 °F 64% 30.46 in 7.0 mi East 6.9 mph - N/A   Clear
2:38 PM 69.8 °F 55.4 °F 60% 30.45 in 10.0 mi SE 4.6 mph - N/A   Clear
3:00 PM 69.8 °F 53.6 °F 56% 30.44 in 5.0 mi Calm Calm - N/A   Haze
3:17 PM 68.0 °F 51.8 °F 56% 30.44 in 4.0 mi ESE 4.6 mph - N/A   Haze
3:40 PM 68.0 °F 51.8 °F 56% 30.43 in 5.0 mi SE 4.6 mph - N/A   Haze
4:05 PM 69.8 °F 48.2 °F 46% 30.43 in 5.0 mi East 6.9 mph - N/A   Haze
4:20 PM 68.0 °F 46.4 °F 46% 30.43 in 5.0 mi ESE 3.5 mph - N/A   Haze
4:37 PM 69.8 °F 46.4 °F 43% 30.43 in 3.0 mi ESE 5.8 mph - N/A   Haze
5:17 PM 66.2 °F 50.0 °F 56% 30.42 in 7.0 mi SSE 4.6 mph - N/A   Clear
5:41 PM 66.2 °F 51.8 °F 60% 30.42 in 5.0 mi SSE 5.8 mph - N/A   Haze
6:02 PM 66.2 °F 53.6 °F 64% 30.42 in 5.0 mi SSE 4.6 mph - N/A   Haze
6:18 PM 64.4 °F 53.6 °F 68% 30.42 in 5.0 mi SSE 6.9 mph - N/A   Haze
6:38 PM 62.6 °F 53.6 °F 72% 30.42 in 5.0 mi SSE 6.9 mph - N/A   Haze
6:58 PM 62.6 °F 51.8 °F 68% 30.42 in 7.0 mi SSE 6.9 mph - N/A   Clear
7:18 PM 60.8 °F 50.0 °F 68% 30.42 in 7.0 mi SSE 4.6 mph - N/A   Clear
7:42 PM 60.8 °F 46.4 °F 59% 30.42 in 7.0 mi SSE 5.8 mph - N/A   Clear
7:57 PM 60.8 °F 46.4 °F 59% 30.41 in 7.0 mi SSE 4.6 mph - N/A   Clear
8:23 PM 60.8 °F 46.4 °F 59% 30.41 in 7.0 mi SSE 5.8 mph - N/A   Clear
8:40 PM 60.8 °F 46.4 °F 59% 30.41 in 7.0 mi SSE 5.8 mph - N/A   Clear
9:20 PM 59.0 °F 46.4 °F 63% 30.42 in 10.0 mi South 8.1 mph - N/A   Clear
9:38 PM 57.2 °F 46.4 °F 67% 30.42 in 10.0 mi South 6.9 mph - N/A   Clear
9:58 PM 57.2 °F 48.2 °F 72% 30.42 in 10.0 mi South 5.8 mph - N/A   Clear
10:18 PM 57.2 °F 48.2 °F 72% 30.42 in 10.0 mi South 4.6 mph - N/A   Clear